Back to catalog

KUIPER-00079

AliveCommunicationsLEO
NORAD 64826·PAYLOAD·🇺🇸 United States

Launched Jul 16, 2025 from Cape Canaveral Space Force Station

Loading…

Next Passes (next 24 hours)

TLE

FreshSource: CelesTrak SupGP

Epoch: Sep 14, 2026, 23:20 UTC

1 64826C 25151L   26257.97262732 -.00020201  00000+0 -26447-2 0  2578
2 64826  51.8982 183.5408 0001094  73.1074 254.8121 14.79944737    15

Track KUIPER-00079 in real time with AllMySat

Download on the App Store